[[{"header":{"parameterUnit":"m.s-1","parameterCategory":1,"la1":30.2991,"la2":30.254,"lo1":-89.0895,"lo2":-89.0444,"dy":0.0017,"dx":0.0017,"nx":28,"ny":28,"refTime":"2025-04-22T21:00:00:Z","depth":0,"parameterNumber":2,"parameterNumberName":"U-component_of_WINDS"},"data":[0,0,0,0,0,0,0,0,0,0,0,0,0,0,0,0,0,0,0,0,0,0,0,0,0,0,0,0,0,0,0,0,0,0,0,0,0,0,0,0,0,0,0,0,0,0,0,0,0,0,0,0,0,0,0,0,0,0,0.4492,0.4493,0,0.4611,0.4612,0.4613,0.4685,0.4685,0.4685,0.4686,0.4803,0.4805,0.4808,0,0,0,0,0,0,0,0,0,0,0,0,0,0.4322,0.4325,0.4492,0.4493,0.4495,0.461,0.4612,0.4614,0.4685,0.4685,0.4686,0.4686,0.4802,0.4805,0.4808,0,0,0,0,0,0,0,0,0,0,0,0,0,0.4414,0.4326,0.4492,0.4544,0.455,0.461,0.4612,0.4614,0.4685,0.4685,0.4686,0.4686,0.4801,0.4805,0.4809,0.4824,0,0,0.4821,0.4823,0,0,0,0,0,0,0,0,0.4409,0.442,0.4535,0.4541,0.4548,0.4634,0.4595,0.4684,0.4684,0.4633,0.4686,0.4686,0.4746,0.4754,0.4775,0.4829,0.4834,0.4822,0.4824,0.4826,0.4827,0,0,0,0,0,0,0,0.4402,0.4415,0.4539,0.4537,0.4544,0.4561,0.4574,0.4612,0.4685,0.4638,0.4643,0.4657,0.4749,0.4771,0.4779,0.4836,0.4822,0.4825,0.4828,0.483,0.4908,0.4908,0,0,0,0,0,0,0.4388,0.441,0.4535,0.4542,0.4478,0.4563,0.4579,0.4605,0.4685,0.4698,0.4656,0.466,0.4764,0.4774,0.4783,0.4806,0.4826,0.483,0.4832,0.4909,0.4908,0.4908,0,0,0,0,0,0,0.4384,0.4399,0.453,0.4478,0.4496,0.4566,0.4595,0.4607,0.463,0.4699,0.4711,0.4666,0.4765,0.4777,0.4814,0.4811,0.4832,0.4836,0.4909,0.4908,0.4908,0.4852,0,0,0,0,0,0,0.4379,0.4397,0.4404,0.4477,0.4498,0.456,0.4595,0.4609,0.4637,0.4643,0.4711,0.4723,0.4766,0.4807,0.4818,0.4817,0.4839,0.491,0.4909,0.4908,0.4854,0.4849,0.4845,0,0,0,0,0,0.4373,0.4383,0.4404,0.4419,0.4509,0.456,0.4572,0.4623,0.4637,0.4644,0.4688,0.472,0.4809,0.481,0.4823,0.4823,0.491,0.4909,0.4908,0.4856,0.485,0.4845,0,0,0,0,0,0,0.4306,0.4393,0.4418,0.4452,0.4498,0.4572,0.4583,0.4615,0.4656,0.4659,0.4719,0.4734,0.4764,0.4798,0.4797,0.4842,0.4863,0.4865,0.4819,0.4814,0.481,0.4801,0.4842,0,0,0,0,0,0.4296,0.4331,0.4405,0.4428,0.445,0.4512,0.4536,0.4571,0.4621,0.464,0.4687,0.4732,0.477,0.4794,0.4833,0.4859,0.4875,0.4866,0.4861,0.4857,0.4858,0.4873,0.487,0.4905,0.4905,0.4905,0,0,0.4274,0.4326,0.4344,0.4416,0.4455,0.4489,0.4528,0.4562,0.4587,0.4645,0.4682,0.4718,0.4773,0.4804,0.482,0.4832,0.4852,0.4856,0.4852,0.4855,0.4872,0.4869,0.4866,0.4904,0.4904,0.4904,0,0,0.4251,0.4295,0.4319,0.4358,0.4418,0.446,0.4465,0.4534,0.4561,0.46,0.4644,0.4674,0.4739,0.4776,0.4803,0.4794,0.4825,0.4805,0.4781,0.4796,0.4793,0.4791,0.4787,0.4785,0.4806,0.4805,0.4805,0,0.4216,0.4271,0.4326,0.4359,0.4388,0.4443,0.4467,0.4502,0.4571,0.459,0.4603,0.4686,0.4726,0.4766,0.4764,0.4785,0.4792,0.4798,0.4789,0.4788,0.4787,0.4784,0.4782,0.4803,0.4803,0.4803,0.4803,0,0.4224,0.4261,0.4273,0.434,0.4371,0.4398,0.4457,0.4482,0.4514,0.4554,0.4592,0.4643,0.4693,0.4705,0.4737,0.475,0.4756,0.4778,0.4801,0.4779,0.4778,0.4777,0.4799,0.48,0.48,0.4801,0,0,0.4163,0.4261,0.4264,0.4295,0.4366,0.4395,0.4424,0.4475,0.4494,0.454,0.4565,0.4619,0.4641,0.4671,0.4707,0.472,0.4709,0.4741,0.4744,0.4733,0.4726,0.4708,0.4706,0.473,0.473,0.4731,0.4721,0,0.415,0.4208,0.4259,0.4298,0.4332,0.4385,0.441,0.4455,0.4493,0.4526,0.4567,0.4604,0.463,0.4649,0.4664,0.4707,0.4709,0.4709,0.4753,0.4754,0.4738,0.4705,0.4687,0.4676,0.4721,0.4721,0.4721,0,0.4143,0.4189,0.4231,0.4298,0.4314,0.4337,0.4387,0.4419,0.447,0.4497,0.4531,0.457,0.4602,0.4621,0.4665,0.4664,0.4685,0.4709,0.471,0.4716,0.4736,0.4709,0.4674,0.4671,0.4721,0.4721,0.4721,0,0.4094,0.4165,0.4199,0.4224,0.4304,0.4318,0.4352,0.4404,0.4431,0.4475,0.4493,0.4538,0.4563,0.4597,0.4646,0.4656,0.4685,0.4708,0.4706,0.4705,0.471,0.4709,0.4676,0.4724,0.4724,0.4724,0.4724,0,0.4074,0.4098,0.4178,0.4199,0.4227,0.4285,0.431,0.4348,0.4394,0.4422,0.447,0.4495,0.4559,0.4591,0.4629,0.4659,0.467,0.4691,0.4701,0.4687,0.4684,0.4701,0.4703,0.4724,0.4724,0.4724,0.4724,0,0.4023,0.4078,0.4119,0.4192,0.421,0.4227,0.4288,0.431,0.4351,0.4386,0.4397,0.446,0.45,0.4553,0.4609,0.4635,0.466,0.4676,0.4643,0.4649,0.4644,0.4643,0.462,0.462,0.4668,0.4667,0.4667,0,0.4007,0.4026,0.4101,0.4125,0.4157,0.4194,0.4222,0.4279,0.4307,0.4367,0.4381,0.4426,0.4464,0.4526,0.4575,0.4618,0.4635,0.4624,0.4642,0.4627,0.4634,0.4632,0.4634,0.4619,0.4618,0.4618,0.4617,0,0.3972,0.3998,0.4038,0.4088,0.412,0.4162,0.4205,0.422,0.4287,0.4314,0.4357,0.4387,0.4446,0.4488,0.4538,0.4571,0.4604,0.4612,0.4613,0.4598,0.4578,0.4589,0.4631,0.4612,0.4612,0.4613,0.4613,0.4613,0.3937,0.3957,0.4013,0.4056,0.4095,0.4134,0.4158,0.4202,0.424,0.4293,0.4324,0.4365,0.4416,0.4486,0.4518,0.455,0.4563,0.4565,0.4566,0.4565,0.456,0.4574,0.4559,0.4559,0.4559,0.4559,0.456,0,0.3904,0.3943,0.3982,0.4042,0.4075,0.4106,0.4155,0.418,0.4217,0.4262,0.43,0.4348,0.439,0.4443,0.4488,0.4504,0.452,0.4513,0.4512,0.4519,0.4546,0.454,0.4499,0.4499,0.4499,0.4499,0.4499,0.4499,0.3891,0.3926,0.3959,0.4013,0.4052,0.4094,0.412,0.4155,0.4192,0.4245,0.4281,0.4316,0.4364,0.4413,0.4452,0.4467,0.4481,0.4469,0.4488,0.4512,0.4517,0.4522,0.4517,0.4472,0.4472,0.4458,0.4458,0.4458]},{"header":{"parameterUnit":"m.s-1","parameterCategory":1,"la1":30.2991,"la2":30.254,"lo1":-89.0895,"lo2":-89.0444,"dy":0.0017,"dx":0.0017,"nx":28,"ny":28,"refTime":"2025-04-22T21:00:00:Z","depth":0,"parameterNumber":3,"parameterNumberName":"V-component_of_WINDS"},"data":[0,0,0,0,0,0,0,0,0,0,0,0,0,0,0,0,0,0,0,0,0,0,0,0,0,0,0,0,0,0,0,0,0,0,0,0,0,0,0,0,0,0,0,0,0,0,0,0,0,0,0,0,0,0,0,0,0,0,3.9516,3.9516,0,3.951,3.951,3.951,3.9507,3.9507,3.9507,3.9507,3.9499,3.9498,3.9498,0,0,0,0,0,0,0,0,0,0,0,0,0,3.9522,3.9522,3.9516,3.9516,3.9516,3.951,3.951,3.951,3.9507,3.9507,3.9507,3.9507,3.9499,3.9498,3.9498,0,0,0,0,0,0,0,0,0,0,0,0,0,3.9518,3.9522,3.9516,3.9514,3.9513,3.951,3.951,3.951,3.9507,3.9507,3.9507,3.9507,3.9499,3.9498,3.9498,3.9496,0,0,3.9497,3.9497,0,0,0,0,0,0,0,0,3.9519,3.9518,3.9514,3.9514,3.9513,3.9509,3.9509,3.9505,3.9507,3.9509,3.9507,3.9507,3.9502,3.9501,3.95,3.9495,3.9495,3.9497,3.9497,3.9497,3.9497,0,0,0,0,0,0,0,3.9519,3.9518,3.9513,3.9514,3.9514,3.9512,3.9512,3.9508,3.9506,3.9509,3.9509,3.9508,3.9502,3.9501,3.95,3.9495,3.9497,3.9497,3.9497,3.9496,3.9489,3.9489,0,0,0,0,0,0,3.952,3.9519,3.9514,3.9513,3.9516,3.9512,3.9512,3.9511,3.9506,3.9505,3.9508,3.9508,3.9501,3.95,3.95,3.9497,3.9497,3.9496,3.9496,3.9489,3.9489,3.9489,0,0,0,0,0,0,3.952,3.9519,3.9514,3.9516,3.9515,3.9512,3.9511,3.9511,3.9509,3.9505,3.9504,3.9508,3.9501,3.95,3.9497,3.9497,3.9496,3.9496,3.9489,3.9489,3.9489,3.9492,0,0,0,0,0,0,3.952,3.9519,3.9519,3.9516,3.9515,3.9512,3.9511,3.951,3.9509,3.9509,3.9504,3.9504,3.9501,3.9498,3.9497,3.9496,3.9496,3.9489,3.9489,3.9489,3.9492,3.9492,3.9492,0,0,0,0,0,3.952,3.9519,3.9519,3.9518,3.9514,3.9512,3.9511,3.9509,3.9509,3.9508,3.9506,3.9504,3.9497,3.9497,3.9496,3.9496,3.9489,3.9489,3.9489,3.9491,3.9492,3.9492,0,0,0,0,0,0,3.9521,3.9519,3.9518,3.9516,3.9514,3.9511,3.951,3.9509,3.9507,3.9507,3.9503,3.9502,3.95,3.9497,3.9498,3.9494,3.9493,3.9493,3.9495,3.9495,3.9496,3.9496,3.9495,0,0,0,0,0,3.9521,3.952,3.9518,3.9516,3.9515,3.9513,3.9512,3.9511,3.9508,3.9507,3.9504,3.9501,3.9499,3.9497,3.9494,3.9492,3.949,3.9491,3.9491,3.9491,3.9491,3.9489,3.9489,3.9489,3.9489,3.9489,0,0,3.9521,3.9519,3.9519,3.9516,3.9515,3.9513,3.9512,3.951,3.9509,3.9506,3.9504,3.9502,3.9498,3.9496,3.9494,3.9494,3.9491,3.9491,3.9491,3.9491,3.9489,3.9489,3.949,3.9489,3.9489,3.9489,0,0,3.9519,3.9518,3.9517,3.9516,3.9514,3.9513,3.9513,3.951,3.9509,3.9507,3.9505,3.9503,3.9498,3.9496,3.9495,3.9494,3.9492,3.9493,3.9494,3.9493,3.9493,3.9493,3.9492,3.9492,3.9493,3.9493,3.9493,0,3.9519,3.9517,3.9516,3.9515,3.9514,3.9513,3.9512,3.951,3.9507,3.9506,3.9506,3.9501,3.9499,3.9496,3.9496,3.9494,3.9494,3.9493,3.9493,3.9493,3.9493,3.9493,3.9493,3.9493,3.9493,3.9493,3.9493,0,3.9517,3.9516,3.9515,3.9513,3.9512,3.9511,3.9509,3.9508,3.9508,3.9506,3.9504,3.9501,3.9498,3.9498,3.9496,3.9495,3.9495,3.9494,3.9493,3.9493,3.9493,3.9493,3.9493,3.9493,3.9493,3.9493,0,0,3.9514,3.9514,3.9513,3.9513,3.9511,3.951,3.9509,3.9507,3.9506,3.9505,3.9503,3.95,3.95,3.9498,3.9496,3.9495,3.9495,3.9495,3.9494,3.9495,3.9494,3.9494,3.9494,3.9495,3.9495,3.9495,3.9494,0,3.9513,3.9511,3.9511,3.9509,3.9508,3.9508,3.9507,3.9506,3.9505,3.9503,3.9502,3.95,3.9499,3.9498,3.9498,3.9496,3.9495,3.9496,3.9493,3.9493,3.9493,3.9494,3.9494,3.9494,3.9494,3.9494,3.9494,0,3.951,3.951,3.9508,3.9508,3.9508,3.9507,3.9505,3.9504,3.9503,3.9502,3.9501,3.95,3.9498,3.9498,3.9496,3.9496,3.9495,3.9494,3.9494,3.9493,3.9493,3.9493,3.9494,3.9493,3.9494,3.9494,3.9494,0,3.9509,3.9508,3.9507,3.9507,3.9506,3.9505,3.9505,3.9504,3.9503,3.9502,3.9501,3.95,3.9499,3.9497,3.9496,3.9496,3.9493,3.9493,3.9493,3.9493,3.9491,3.9491,3.9492,3.9491,3.9491,3.9491,3.9491,0,3.9507,3.9506,3.9506,3.9506,3.9505,3.9505,3.9504,3.9503,3.9502,3.9501,3.9501,3.95,3.9498,3.9497,3.9496,3.9494,3.9494,3.9493,3.9492,3.9493,3.9493,3.9491,3.9491,3.9491,3.9491,3.9491,3.9491,0,3.9504,3.9505,3.9504,3.9504,3.9504,3.9503,3.9503,3.9502,3.9502,3.9501,3.9501,3.95,3.9498,3.9497,3.9495,3.9494,3.9492,3.9492,3.9493,3.9493,3.9492,3.9492,3.9491,3.9491,3.9491,3.9491,3.9491,0,3.9503,3.9502,3.9503,3.9503,3.9503,3.9502,3.9502,3.9502,3.9501,3.9501,3.95,3.9499,3.9498,3.9496,3.9495,3.9493,3.9492,3.9492,3.9492,3.9493,3.9492,3.9492,3.9492,3.9492,3.9492,3.9492,3.9492,0,3.95,3.9501,3.9501,3.9501,3.9501,3.9501,3.95,3.95,3.95,3.95,3.9499,3.9498,3.9497,3.9496,3.9494,3.9493,3.9493,3.9492,3.9492,3.9492,3.9493,3.9492,3.9493,3.9492,3.9492,3.9492,3.9492,3.9492,3.9498,3.9498,3.9499,3.9499,3.9499,3.9499,3.9499,3.9499,3.9498,3.9498,3.9498,3.9497,3.9496,3.9495,3.9494,3.9493,3.9493,3.9492,3.9492,3.9492,3.9492,3.9494,3.9493,3.9493,3.9493,3.9493,3.9493,0,3.9495,3.9496,3.9496,3.9497,3.9497,3.9497,3.9498,3.9497,3.9497,3.9497,3.9496,3.9496,3.9495,3.9494,3.9493,3.9493,3.9492,3.9493,3.9492,3.9492,3.9492,3.9493,3.9493,3.9493,3.9493,3.9493,3.9493,3.9493,3.9494,3.9494,3.9494,3.9494,3.9495,3.9495,3.9495,3.9495,3.9495,3.9495,3.9495,3.9495,3.9494,3.9494,3.9493,3.9493,3.9492,3.9492,3.9492,3.9492,3.9492,3.9492,3.9492,3.9492,3.9492,3.9492,3.9492,3.9492]}]]